RH
24 22 19 16 17 19 24 26 25 26 27 28 28 28 28 28 27 27 27 27 27 26 24 22 23 25 26 28 33 37 40 45 43 37 36 39 45 56 63 65 67 70 75 78 72 69 70 65 60 61 62 58 52 49 51 52 52 51 51 48 47 50 52 54 54 55 57 57 57 59 59 60 60 59 61 63 63 65 67 67 65 63 61 58 57
21 19 20 22 23 24 27 27 26 27 28 27 27 28 28 28 28 28 28 27 25 22 23 24 26 29 30 31 34 37 39 41 43 43 41 37 37 44 53 59 63 65 68 73 74 74 74 69 62 62 63 61 55 52 52 53 53 53 54 52 48 47 49 51 53 56 60 58 57 57 59 59 59 60 62 63 63 65 66 66 65 64 62 60 60
19 20 24 25 26 27 28 27 27 28 27 27 27 27 27 27 27 27 28 28 25 24 26 28 29 29 28 25 27 33 37 39 41 44 44 39 34 36 43 52 61 63 61 63 68 73 76 75 68 63 63 63 59 55 53 52 53 54 56 58 55 49 46 47 51 57 62 60 58 57 57 58 61 63 63 64 65 67 68 68 65 61 60 59 60
23 26 26 25 27 27 27 26 27 27 27 27 27 27 27 27 27 27 28 29 29 29 28 27 27 26 23 22 23 29 36 39 40 42 44 41 34 32 38 46 55 61 60 58 60 67 75 77 74 69 69 69 63 58 55 52 52 52 52 55 57 53 47 45 50 56 58 56 56 58 59 59 63 64 63 64 66 65 64 64 62 59 59 58 59
27 28 26 25 26 26 26 27 27 26 27 27 27 27 27 27 28 28 28 29 29 29 28 27 26 25 23 23 22 25 31 36 39 40 41 40 38 36 37 41 45 53 61 61 56 57 66 74 76 75 75 75 68 60 57 54 52 50 49 49 51 50 46 47 52 54 55 54 56 59 61 60 59 59 60 63 65 64 64 64 62 60 59 58 59
29 27 26 27 27 26 27 27 27 27 27 27 27 27 26 27 27 27 28 29 28 28 28 28 27 27 26 24 23 23 27 33 40 44 41 35 35 40 42 42 43 46 54 62 60 56 58 65 74 77 76 77 74 66 60 57 53 51 48 45 46 46 45 49 54 54 55 57 58 59 60 59 56 54 56 59 62 66 69 67 65 65 64 62 61
30 28 28 27 27 27 27 26 27 28 27 27 27 26 26 26 27 27 28 28 27 27 27 28 28 28 28 27 26 25 26 30 36 43 45 38 33 34 38 43 47 46 48 54 60 60 59 62 72 79 79 78 75 66 61 59 56 54 51 46 44 44 44 48 52 54 56 58 58 58 59 58 56 55 54 54 57 62 66 65 65 67 67 66 64
30 29 28 27 27 26 27 27 27 28 28 27 26 27 27 26 27 28 28 28 28 28 29 29 29 29 29 28 28 27 27 31 35 38 42 41 35 32 34 36 41 47 48 50 53 57 60 62 69 77 79 77 71 65 63 64 61 57 53 49 46 45 46 50 54 56 57 58 58 58 59 58 57 55 53 53 55 59 63 65 65 64 64 63 64
29 28 27 26 27 26 27 27 28 28 28 28 27 26 26 26 27 28 28 28 29 29 30 30 30 30 29 30 31 32 31 36 42 43 41 39 34 31 33 34 36 43 48 50 51 54 56 58 63 71 75 75 73 70 67 69 69 62 55 53 51 47 47 54 58 58 58 58 58 59 61 60 58 55 54 53 55 57 61 63 65 64 63 61 61
29 28 27 26 26 26 27 27 28 29 28 28 27 26 26 26 27 27 28 29 29 29 30 31 31 32 32 33 35 37 38 40 45 47 45 43 37 31 31 33 36 40 42 46 52 56 58 58 61 67 72 75 77 74 69 70 72 69 60 59 64 61 56 58 60 59 59 59 57 58 60 61 60 57 54 53 55 57 59 61 64 66 66 64 62
29 28 27 26 26 26 27 28 28 28 29 29 27 26 26 26 26 28 28 29 30 30 31 32 33 33 34 36 38 40 41 42 45 47 48 48 44 36 31 31 33 36 39 44 50 56 59 59 62 65 69 74 78 75 71 71 73 73 68 66 72 74 67 62 62 59 58 59 58 58 59 59 60 59 57 56 55 55 57 59 63 66 67 67 67
32 29 28 27 26 27 27 28 28 28 29 29 28 27 26 26 26 27 29 30 30 30 31 32 34 35 36 38 40 43 44 44 47 49 49 50 49 43 37 34 33 35 39 42 45 52 57 59 62 65 66 72 78 76 75 74 72 73 73 68 73 80 77 70 64 59 58 58 58 58 58 58 58 59 60 60 57 55 55 57 62 65 66 69 71
33 31 28 27 27 27 28 28 28 28 29 28 28 27 27 27 27 27 28 30 30 29 30 33 35 39 41 42 43 45 46 46 48 50 50 51 51 47 41 37 35 35 38 40 42 49 55 59 63 66 67 72 77 79 79 76 71 71 74 73 77 81 77 70 63 57 57 58 58 57 57 57 58 60 63 64 60 56 54 56 58 61 63 65 66
35 31 29 27 27 27 28 28 29 29 29 29 28 27 27 28 28 28 28 29 30 30 31 34 38 42 44 45 45 46 47 47 47 48 51 52 53 51 43 37 36 35 36 40 44 48 54 59 62 65 68 70 74 78 81 78 73 72 74 73 71 68 62 58 56 54 55 57 57 57 58 59 59 61 63 64 61 56 54 55 56 57 59 61 61
36 32 28 28 28 27 28 29 29 29 30 30 29 27 27 28 28 30 30 31 32 32 33 35 39 43 45 46 45 45 46 47 47 47 49 52 54 53 47 40 37 36 35 40 47 51 53 56 59 64 70 73 74 79 82 81 77 76 75 70 62 57 56 54 53 53 54 56 57 56 57 59 61 62 62 63 62 59 57 56 56 57 59 61 61
35 32 29 27 27 27 28 28 29 29 30 30 29 27 28 29 29 31 32 33 34 35 36 39 41 44 47 47 47 46 45 46 47 48 49 51 53 51 47 41 38 36 36 39 45 50 51 51 56 65 72 73 74 78 83 85 83 80 77 70 62 56 55 55 56 56 54 54 56 56 55 56 58 60 62 63 65 65 64 62 59 59 61 62 61
34 32 30 28 28 28 27 28 29 29 30 31 30 29 28 28 29 32 33 34 35 36 38 41 43 46 48 49 49 48 46 46 47 48 48 51 53 52 49 44 39 37 36 38 43 49 51 53 60 67 70 71 73 76 82 87 87 84 80 73 66 60 56 56 61 61 55 52 54 55 54 54 55 58 60 62 63 64 66 68 65 62 61 61 60
34 34 32 30 30 29 28 29 29 30 30 30 31 30 28 26 27 32 34 35 36 38 41 43 44 46 48 49 49 46 46 46 47 48 49 50 53 54 53 50 45 39 38 39 42 48 53 57 62 67 69 71 73 74 77 84 87 87 83 77 71 65 61 63 67 66 58 53 53 54 53 53 54 56 58 59 60 61 63 66 66 64 62 61 60
35 35 33 31 31 29 28 29 29 30 31 31 31 31 30 27 26 29 33 35 36 39 42 44 46 46 47 48 46 43 44 45 45 47 51 53 54 55 56 56 52 44 41 42 43 46 53 58 62 66 68 70 70 70 73 81 88 89 86 81 75 69 68 72 75 73 66 60 57 55 54 52 52 53 55 57 58 58 60 64 65 65 64 64 64
36 35 33 32 31 30 29 30 31 31 32 31 30 30 30 29 27 29 31 33 36 39 41 43 46 47 47 48 46 43 44 46 45 47 51 54 57 58 59 59 55 45 43 46 44 44 51 58 62 66 68 67 68 72 76 80 86 91 90 86 80 74 73 78 79 76 73 68 61 55 55 56 55 54 56 58 58 58 59 63 64 64 65 67 67
35 35 33 32 31 30 30 32 32 32 33 33 32 31 30 29 27 28 30 33 38 42 42 43 46 47 48 50 50 46 45 49 50 49 50 52 54 56 58 58 55 47 43 45 45 45 49 56 63 67 67 66 68 75 82 84 87 91 93 89 84 79 77 79 81 78 75 70 61 56 60 67 67 65 63 61 59 60 61 63 64 64 65 68 70
36 35 34 32 30 30 32 33 33 33 33 33 33 31 30 30 28 28 28 32 39 44 43 42 45 48 48 50 52 49 49 54 55 52 53 53 53 54 56 57 57 53 46 41 42 45 48 54 63 68 68 68 71 77 84 86 86 89 91 89 87 84 79 78 80 79 75 70 63 60 65 71 72 72 71 65 63 63 63 64 65 67 68 70 72
36 35 34 33 32 32 32 32 33 33 33 33 32 31 31 31 30 29 28 31 37 43 42 41 44 47 48 49 50 50 53 59 60 56 54 54 54 55 57 59 59 58 53 46 43 45 46 49 59 69 69 69 72 78 83 86 87 88 89 88 89 86 81 79 79 77 74 70 66 66 69 69 70 73 73 70 68 70 72 71 71 72 72 73 71
38 38 36 34 32 32 32 32 33 33 33 32 31 31 30 30 29 30 29 30 34 39 41 41 43 47 48 48 50 51 54 60 61 59 56 56 55 55 57 61 62 61 58 52 46 45 46 46 54 68 74 72 71 73 78 84 87 88 89 89 89 88 84 81 80 77 73 68 67 70 72 71 70 71 71 70 69 71 75 78 77 75 75 76 76
40 39 37 34 32 33 33 33 33 32 31 30 29 28 29 29 29 30 29 29 31 36 40 42 45 47 49 50 50 52 56 61 63 61 59 58 58 57 57 62 65 63 60 56 51 48 47 45 51 66 77 77 75 72 75 80 82 83 86 88 88 88 85 83 83 81 75 69 70 74 75 74 73 73 71 69 68 68 71 76 77 75 75 77 80
41 39 36 34 33 34 33 33 33 32 30 28 27 28 28 29 30 31 31 31 32 34 39 43 45 47 50 51 52 54 58 62 62 62 62 62 63 62 60 63 68 67 62 60 57 54 49 44 48 62 73 76 76 73 73 76 79 80 83 86 88 87 85 83 83 81 76 72 73 76 76 74 74 74 72 69 67 67 71 75 76 75 75 76 79
41 39 35 34 35 35 34 33 33 31 30 28 28 29 30 31 32 33 33 33 33 35 38 41 42 43 46 49 52 56 60 63 62 63 66 67 67 65 63 64 68 68 65 61 58 57 55 49 49 61 71 72 71 69 67 70 74 76 79 83 85 85 85 84 83 81 77 73 74 77 75 72 70 70 70 69 68 68 70 72 73 73 74 75 76
41 38 35 35 35 35 35 33 33 31 30 30 31 32 33 34 35 35 34 35 35 34 36 37 37 37 40 45 51 57 63 66 64 63 67 70 70 68 67 68 70 69 67 63 60 62 66 61 54 61 71 71 67 66 64 64 66 69 72 77 80 82 84 84 83 81 78 75 76 78 76 73 71 70 68 68 68 68 68 69 70 72 74 75 76
37 36 36 36 36 36 35 33 33 32 31 31 32 33 35 35 36 35 34 35 35 35 34 35 36 36 40 46 53 58 63 65 65 64 65 68 69 69 68 70 72 69 65 64 64 67 71 67 58 59 67 69 67 66 65 64 65 67 69 73 77 81 83 84 84 83 80 77 77 78 76 75 74 74 71 69 68 68 69 70 72 73 73 75 78
35 37 36 35 36 36 35 34 33 33 33 33 33 34 34 35 35 34 32 33 34 34 34 35 36 38 42 49 55 60 62 63 61 60 60 60 64 66 65 66 69 70 67 66 66 67 66 63 57 57 62 66 67 66 65 66 68 69 70 72 77 82 84 84 82 80 78 77 77 78 78 77 76 76 74 70 67 69 71 73 74 73 73 75 78
35 36 36 35 35 36 35 35 35 34 34 34 34 34 34 34 34 34 34 34 34 34 35 36 38 42 49 54 58 61 63 61 59 57 56 56 57 59 60 60 63 68 70 69 66 64 61 58 58 59 61 65 68 69 68 67 69 71 72 72 76 80 81 80 79 77 76 76 76 75 75 75 75 76 75 71 69 72 74 74 74 74 76 79 80
34 33 35 36 35 35 35 35 36 37 36 35 35 36 36 35 35 35 37 38 38 37 38 40 45 53 60 62 62 63 63 61 59 57 56 56 56 55 55 56 59 63 67 66 64 63 61 59 60 61 61 66 72 73 71 72 74 76 76 75 76 78 78 77 77 76 74 74 73 71 70 71 72 74 74 73 72 74 74 75 77 78 79 81 82
35 35 36 36 36 36 37 38 40 41 42 42 42 43 44 43 43 42 44 46 45 45 48 54 59 63 68 68 67 67 66 64 61 58 55 56 57 56 54 54 55 57 60 62 63 64 62 60 62 63 64 69 75 74 72 76 80 80 79 76 75 75 75 73 71 71 71 70 70 71 73 74 75 75 75 75 75 75 76 79 81 81 81 83 84
36 36 36 36 37 40 42 44 45 47 49 51 52 53 53 53 52 53 54 54 53 54 58 65 69 70 70 71 71 70 69 67 64 61 57 57 58 57 55 53 52 54 56 59 61 63 63 63 64 64 64 68 73 75 78 82 83 79 76 73 71 71 71 69 68 69 71 71 72 73 76 79 79 79 78 77 76 78 80 82 82 83 85 87 88
36 36 36 37 42 47 50 52 52 54 55 56 58 57 56 55 57 60 62 63 64 65 67 71 74 74 73 72 72 72 72 70 68 65 62 59 58 58 55 54 52 52 53 56 61 65 66 64 64 63 62 63 66 72 79 82 80 75 71 68 68 69 70 69 69 70 72 72 72 74 77 81 82 81 79 78 78 79 82 84 85 87 88 89 89
36 35 36 41 48 52 53 54 55 57 58 58 57 58 58 60 64 67 68 71 73 73 74 75 76 76 75 74 73 72 72 71 71 69 66 62 60 58 56 54 52 52 52 55 61 67 65 62 61 62 63 62 63 68 75 79 76 70 66 65 66 68 68 68 70 72 73 74 74 76 80 83 84 83 81 80 81 82 83 85 87 88 89 89 89
36 35 39 47 53 54 54 56 58 60 61 60 60 63 65 67 69 70 72 76 78 77 78 79 80 79 78 77 75 73 71 72 72 70 68 64 61 59 57 54 51 51 51 54 58 61 60 58 59 60 63 66 66 67 72 74 71 66 62 63 64 63 62 64 68 71 73 74 76 79 83 85 85 85 84 83 84 85 85 86 87 88 87 86 85
36 37 44 52 57 57 59 62 65 67 67 66 66 68 69 70 72 72 75 78 81 80 80 79 80 80 80 79 78 75 75 75 75 72 70 66 62 59 57 55 53 52 51 53 56 58 58 59 59 61 66 71 70 69 70 70 66 62 61 60 59 56 58 64 68 70 73 77 81 82 85 87 88 88 87 86 86 87 88 89 90 89 85 83 83
35 39 47 55 59 60 62 65 68 70 70 69 69 69 70 73 76 77 78 80 81 82 80 78 77 79 79 80 80 79 77 77 78 77 75 72 67 61 57 55 54 52 51 52 56 60 62 62 62 65 72 79 78 74 72 69 65 61 60 59 56 53 57 65 69 72 77 83 83 80 80 84 86 85 84 84 85 86 86 86 87 86 84 82 84
35 39 48 56 58 58 61 65 68 69 70 70 71 72 73 76 79 80 80 79 78 78 79 78 79 79 79 80 81 80 77 77 77 78 79 78 74 67 61 56 54 53 52 53 56 62 68 68 64 64 72 80 81 78 74 70 65 60 60 60 57 54 57 63 67 70 77 82 82 79 78 79 79 79 79 79 80 80 80 81 84 86 87 87 87
37 42 50 55 57 59 62 66 70 73 75 76 76 75 76 78 79 78 77 76 74 75 76 77 79 79 78 78 78 76 75 74 74 74 76 76 75 70 64 60 57 56 55 55 57 62 70 71 67 66 70 74 76 76 74 69 63 58 59 61 59 57 59 62 60 63 70 75 77 78 79 79 80 79 78 78 78 77 78 79 82 86 88 88 87
41 47 52 54 57 61 65 69 75 80 82 82 80 78 77 78 78 77 75 73 72 73 73 73 74 74 74 74 74 74 73 74 73 71 70 71 72 70 66 64 61 57 56 58 59 62 69 72 69 69 72 74 75 75 73 67 60 56 58 61 59 59 63 64 59 59 63 66 67 68 69 72 75 76 75 75 75 75 76 77 79 80 82 81 79
47 52 55 56 58 63 68 73 80 84 83 81 80 79 78 78 77 76 75 73 72 71 71 70 70 70 69 69 71 72 71 70 70 69 67 67 69 69 68 68 65 62 62 63 59 61 70 75 72 69 70 73 76 77 73 66 59 55 57 61 60 60 63 65 63 62 61 61 61 62 62 65 71 73 71 71 71 70 70 71 71 71 72 72 72
48 52 55 56 59 65 71 77 83 84 80 78 79 78 78 78 77 75 74 74 72 72 71 70 69 68 67 68 70 70 69 69 71 73 73 72 71 70 68 69 70 70 69 65 59 62 71 75 72 69 69 72 76 78 75 70 65 59 56 60 62 62 62 63 63 63 63 62 62 63 64 67 70 71 69 70 70 68 68 68 67 68 70 69 71
48 51 54 55 60 69 76 81 84 81 77 76 77 77 77 79 79 77 76 74 72 72 72 72 70 68 67 69 70 70 71 72 75 78 80 79 75 71 70 70 72 74 72 64 59 64 71 72 71 73 74 75 78 80 76 73 70 63 58 59 62 62 61 61 61 61 62 63 63 64 65 66 68 68 68 68 67 65 64 64 65 66 67 66 68
47 50 52 55 62 72 81 83 81 77 75 74 74 74 76 78 80 81 80 78 75 72 73 72 71 70 69 70 72 73 74 76 78 80 82 82 78 77 79 80 77 76 75 70 66 68 72 73 75 78 79 79 80 80 76 74 71 67 65 66 65 64 64 64 62 60 61 61 61 60 60 62 64 65 65 65 63 61 60 60 60 61 64 64 66
46 49 52 57 65 75 82 81 77 73 73 74 73 71 73 78 82 85 86 84 80 78 77 75 74 73 73 73 74 74 76 80 82 80 79 80 82 84 87 87 83 80 81 81 79 78 79 78 77 79 81 82 81 79 77 76 74 71 70 71 70 68 69 68 65 64 64 62 58 56 57 59 61 61 62 62 62 62 62 62 63 66 69 73 74
48 50 55 61 69 77 81 79 74 71 72 73 72 71 74 80 85 88 89 87 83 82 82 80 78 77 75 74 75 76 79 84 86 82 78 80 85 85 85 86 84 82 82 81 79 78 77 76 76 79 84 85 83 79 77 76 74 72 72 72 72 73 73 69 65 65 65 61 56 55 58 61 61 60 61 64 64 65 66 69 72 75 79 81 81
50 54 59 65 72 78 80 77 74 73 73 71 69 71 76 82 87 89 89 87 85 86 87 85 82 80 78 75 76 80 85 88 87 84 81 82 83 83 85 87 86 83 82 80 76 74 74 75 77 79 81 81 81 78 75 73 71 72 75 77 77 77 75 71 67 67 67 64 61 62 65 67 66 65 65 66 68 70 73 75 76 78 80 82 83
51 57 63 69 74 79 80 76 73 73 72 69 69 73 78 82 86 90 91 90 90 92 94 92 88 84 81 79 82 87 90 91 91 90 88 84 82 83 90 92 87 83 83 82 79 78 80 82 81 77 74 73 76 78 79 78 75 74 76 78 78 76 74 70 68 69 69 68 67 66 67 68 70 70 71 73 76 77 78 78 79 80 81 82 84
52 60 67 72 77 81 81 78 74 72 72 71 73 75 77 79 84 90 92 92 92 95 97 96 93 89 86 86 90 93 94 94 95 95 92 88 85 86 90 90 84 80 82 82 82 83 86 87 83 78 72 70 73 77 80 81 79 76 76 77 77 75 72 71 73 75 74 72 73 73 71 72 74 75 76 78 80 81 81 81 82 82 83 84 85